Regional Weather Roundup
Issued by NWS Burlington, VT

Current Version | Previous Version | Text Only | Print | Product List | Glossary Off
Versions: 1 2 3 4 5 6 7 8 9 10 11 12 13 14 15 16 17 18 19 20 21 22 23 24 25 26 27 28 29 30 31 32 33 34 35 36 37 38 39 40 41 42 43 44 45 46 47 48 49 50

000
ASUS41 KBTV 291630
RWRBTV
VERMONT REGIONAL WEATHER ROUNDUP
NATIONAL WEATHER SERVICE BURLINGTON VT
1200 PM EDT MON AUG 29 2016

NOTE: "FAIR" INDICATES FEW OR NO CLOUDS BELOW 12,000 FEET WITH NO
SIGNIFICANT WEATHER AND/OR OBSTRUCTIONS TO VISIBILITY.

* THESE REPORTS ARE NOT UNDER NWS QUALITY CONTROL AND/OR DO NOT
  REPORT WEATHER SUCH AS PRECIPITATION AND FOG.

VTZ001>019-291700-
_____VERMONT_____


CITY           SKY/WX    TMP DP  RH WIND       PRES   REMARKS
BURLINGTON     PTSUNNY   76  54  46 NW16G23   30.15R
MONTPELIER     MOSUNNY   69  54  58 NW18G32   30.18R
MORRISVILLE    CLOUDY    69  55  60 NW9       30.16R
ST. JOHNSBURY*   N/A     71  55  56 MISG      30.10R
LYNDONVILLE*   PTSUNNY   68  58  71 W7        30.15R
MIDDLEBURY*    FAIR      75  54  48 N15G21    30.14S
RUTLAND*       PTSUNNY   75  57  53 NW12G21   30.13S
SPRINGFIELD    MOSUNNY   78  55  44 NW9       30.10F
HIGHGATE*      PTSUNNY   71  59  66 NW7G16    30.15S
NEWPORT*       CLOUDY    65  56  72 NW8G16    30.14S
BENNINGTON     MOSUNNY   78  58  49 N8        30.15S
GALLUP MILLS*    N/A     64 N/A N/A MISG        N/A
UNION VILLAGE*   N/A     75 N/A N/A MISG        N/A
MT. MANSFIELD*   N/A     52 N/A N/A NW39G52     N/A

_____LAKE CHAMPLAIN_____


CITY           SKY/WX    TMP DP  RH WIND       PRES   REMARKS
BURTON ISLAND*   N/A    N/A N/A N/A NW3         N/A
COLCHESTER RF*   N/A     72  59  64 N20         N/A
DIAMOND ISL*     N/A     73  52  46 N17         N/A

$$

NYZ007-026>031-035-052-083-087-291700-
_____NORTHERN NEW YORK_____


CITY           SKY/WX    TMP DP  RH WIND       PRES   REMARKS
PLATTSBURGH    CLOUDY    74  57  55 NW13G20   30.15S
SARANAC LAKE   MOSUNNY   69  51  52 W10G17    30.20S
MASSENA        MOSUNNY   72  57  59 NW9G17    30.21S
OGDENSBURG*    MOSUNNY   73  57  56 N6        30.22S
POTSDAM*       MOSUNNY   70  61  73 N5        30.21F
STARK FALLS*     N/A    106 N/A N/A NW10        N/A
WATERTOWN      SUNNY     77  55  46 NW8       30.22S
FT DRUM        SUNNY     72  57  58 N8        30.22F
GLENS FALLS    SUNNY     79  57  46 N12G20    30.13F

$$
NHZ002-005-011-291700-
_____NEW HAMPSHIRE_____


CITY           SKY/WX    TMP DP  RH WIND       PRES   REMARKS
LEBANON        PTSUNNY   78  56  46 NW12G21   30.10R
KEENE          CLOUDY    78  61  55 NW8       30.09S
MT WASHINGTON  FOG       45  45 100 W74G84      N/A  VSB 0   WCI  30
PLYMOUTH       FAIR      76  54  46 W12       30.07S
WHITEFIELD     CLOUDY    67  56  67 NW10      30.11R

$$

_____REGIONAL QUEBEC LOCATIONS_____


CITY           SKY/WX    TMP DP  RH WIND       PRES   REMARKS
MONTREAL       PTSUNNY   72  54  53 W16G23    30.15S
QUEBEC CITY    PTSUNNY   70  57  64 NW18G24   30.03R
SHERBROOKE     PTSUNNY   66  57  72 W15G21    30.09R

_____REGIONAL ONTARIO LOCATIONS_____


CITY           SKY/WX    TMP DP  RH WIND       PRES   REMARKS
OTTAWA         MOSUNNY   72  55  56 N9        30.23R

______KEY______
VSB  - VISIBILITY IN MILES
WCI  - WIND CHILL INDEX
HX   - HEAT INDEX
$$
NNNN




USA.gov is the U.S. government's official web portal to all federal, state and local government web resources and services.